User: anonymous   Login
Location: Lavington
(51.2833°N, 1.9833°W)
Time: 16:27:18
(UTC+00:00)
Language:

NOSS 3-2 (C) - Orbit

View from above orbital plane
View from above orbital plane
View from above satellite
View from above satellite

Ground track
Ground track

The orbit data is extracted from the following two-line orbital elements,

1 28097U 03054C   20221.07112556 0.00000000  00000-0  00000-0 0    05
2 28097  63.4226 266.5154 0408002 358.9849   1.0150 13.40765382    06
Epoch (UTC): 08 August 2020 01:42:25
Eccentricity: 0.0408002
inclination: 63.4226°
perigee height: 801 km
apogee height: 1412 km
right ascension of ascending node: 266.5154°
argument of perigee: 358.9849°
revolutions per day: 13.40765382
mean anomaly at epoch: 1.0150°
orbit number at epoch: 0

The dashed part of the orbit path shows where the satellite is in the earth's shadow,  

DLR